EW7643 Weather Reports


Display with metric or nautical units.
time (UTC)temp
F
wind
direction
speed
MPH
gust
MPH
rain 1hr
in
rain 24hr
in
rain mn
in
humidity
%
barometer
mb
20260903154531 82 16 0.0 0.0 0.00 0.02 0.01 81 1014.7
20260903153028 81 16 0.0 0.0 0.00 0.02 0.01 82 1014.8
20260903151530 81 16 0.0 0.0 0.00 0.02 0.01 82 1014.7
20260903150022 81 14 0.0 0.0 0.01 0.02 0.01 82 1014.8
20260903144533 81 23 0.0 0.0 0.01 0.02 0.01 82 1014.5
20260903143024 80 23 0.0 0.0 0.01 0.02 0.01 81 1014.7
20260903141527 80 23 0.0 0.0 0.01 0.02 0.01 81 1014.9
20260903140030 80 73 0.0 0.0 0.00 0.01 0.00 81 1014.7
20260903134540 0 0.0 0.0 0.00 0.01 0.00 1014.7
20260903133037 0 0.0 0.0 0.00 0.01 0.00 1014.8
20260903131540 0 0.0 0.0 0.00 0.01 0.00 1014.7
20260903130040 0 0.0 0.0 0.00 0.01 0.00 1014.6
20260903124543 0 0.0 0.0 0.00 0.01 0.00 1014.5
20260903123038 0 0.0 0.0 0.00 0.01 0.00 1014.4
20260903121538 0 0.0 0.0 0.00 0.01 0.00 1013.8
20260903120046 0 0.0 0.0 0.00 0.01 0.00 1013.9
20260903114536 0 0.0 0.0 0.00 0.01 0.00 1014.0
20260903113037 0 0.0 0.0 0.00 0.01 0.00 1013.9
20260903111539 0 0.0 0.0 0.00 0.01 0.00 1013.8
20260903110036 0 0.0 0.0 0.00 0.01 0.00 1013.7
20260903104546 0 0.0 0.0 0.00 0.01 0.00 1013.7
20260903103038 0 0.0 0.0 0.00 0.01 0.00 1013.7
20260903101538 0 0.0 0.0 0.00 0.01 0.00 1013.5
20260903100038 0 0.0 0.0 0.00 0.01 0.00 1013.6
20260903094541 0 0.0 0.0 0.00 0.01 0.00 1013.4
20260903093045 0 0.0 0.0 0.00 0.01 0.00 1013.5
20260903091534 81 113 0.0 0.0 0.00 0.01 0.00 81 1013.6
20260903090034 81 113 0.0 0.0 0.00 0.01 0.00 81 1013.6
20260903084527 81 113 0.0 0.0 0.00 0.01 0.00 81 1013.6
20260903083006 81 113 0.0 0.0 0.00 0.01 0.00 81 1013.5
20260903081505 81 121 0.0 0.0 0.00 0.01 0.00 81 1013.4
20260903080004 81 121 0.0 0.0 0.00 0.01 0.00 81 1013.4
20260903074504 82 120 0.0 0.0 0.00 0.01 0.00 81 1013.3
20260903073007 82 121 0.0 0.0 0.00 0.01 0.00 81 1013.4
20260903071509 82 105 0.0 0.0 0.00 0.01 0.00 81 1013.5
20260903070004 82 105 0.0 0.0 0.00 0.01 0.00 81 1013.6
20260903064509 82 113 0.0 0.0 0.00 0.01 0.00 81 1013.8
20260903063008 82 113 0.0 0.0 0.00 0.01 0.00 81 1014.1
20260903061508 82 113 0.0 0.0 0.00 0.01 0.00 82 1014.3
20260903060012 82 113 0.0 0.0 0.00 0.01 0.00 82 1014.4
20260903054507 82 113 0.0 0.0 0.00 0.01 0.00 82 1014.4
20260903053011 82 113 0.0 0.0 0.00 0.01 0.00 82 1014.4
20260903051506 82 132 0.0 0.0 0.00 0.01 0.00 82 1014.5
20260903050023 83 136 0.0 0.0 0.00 0.01 0.00 82 1014.4
20260903044508 83 136 0.0 0.0 0.00 0.01 0.01 81 1014.7
20260903043010 83 136 0.0 0.0 0.00 0.01 0.01 81 1014.7
20260903041513 83 136 0.0 0.0 0.00 0.01 0.01 81 1014.6
20260903040009 83 239 0.0 0.0 0.00 0.01 0.01 81 1014.7
20260903034518 84 239 0.0 0.0 0.00 0.01 0.01 81 1014.5
20260903033011 84 115 0.0 0.0 0.00 0.01 0.01 81 1014.4
20260903031509 83 304 0.0 0.0 0.00 0.01 0.01 81 1014.5
20260903030012 83 147 0.0 0.0 0.00 0.01 0.01 81 1014.3
20260903024510 84 115 0.0 0.0 0.00 0.01 0.01 81 1013.9
20260903023010 84 131 0.0 0.0 0.00 0.01 0.01 81 1013.7
20260903021512 84 113 0.0 0.0 0.00 0.01 0.01 81 1013.4
20260903020013 84 100 0.0 0.0 0.00 0.01 0.01 81 1013.3
20260903014510 84 112 0.0 0.0 0.01 0.01 0.01 81 1013.4
20260903013012 84 110 0.0 0.0 0.01 0.01 0.01 81 1013.4
20260903011514 85 107 0.0 0.0 0.01 0.01 0.01 81 1013.2
20260903010015 85 122 0.0 0.0 0.01 0.01 0.01 80 1012.9
20260903004526 85 103 0.0 0.0 0.00 0.00 0.00 79 1013.2
20260903003014 86 101 0.0 0.0 0.00 0.00 0.00 77 1013.1
20260903001515 86 66 0.0 0.0 0.00 0.00 0.00 76 1012.4
20260903000017 87 115 0.0 0.0 0.00 0.01 0.00 75 1012.3
20260902234516 88 103 0.0 0.0 0.00 0.01 0.00 72 1012.3
20260902233016 89 101 0.0 0.0 0.00 0.01 0.00 70 1012.4
20260902231516 90 108 0.0 0.0 0.00 0.01 0.00 69 1012.3
20260902230019 90 233 0.0 0.0 0.00 0.01 0.00 64 1012.3
20260902224514 92 115 0.0 0.0 0.00 0.01 0.00 60 1012.2
20260902223019 92 92 0.0 8.0 0.00 0.01 0.00 59 1012.2
20260902221522 94 101 0.0 0.0 0.00 0.01 0.00 59 1012.2
20260902220016 94 115 0.0 0.0 0.00 0.01 0.00 56 1012.2
20260902214526 94 64 0.0 0.0 0.00 0.01 0.00 58 1012.2
20260902213025 93 131 0.0 0.0 0.00 0.01 0.00 60 1012.3
20260902211520 94 103 0.0 0.0 0.00 0.02 0.00 58 1012.4
20260902210025 94 110 0.0 0.0 0.00 0.02 0.00 55 1012.5
20260902204520 95 130 0.0 0.0 0.00 0.02 0.00 56 1012.6
20260902203030 95 114 0.0 0.0 0.00 0.02 0.00 59 1012.8
20260902201521 95 112 0.0 0.0 0.00 0.02 0.00 59 1013.0
20260902200024 94 117 0.0 0.0 0.00 0.02 0.00 59 1013.2
20260902194520 94 91 0.0 0.0 0.00 0.02 0.00 58 1013.5
20260902193025 93 112 0.0 0.0 0.00 0.02 0.00 60 1013.6
20260902191536 93 119 0.0 0.0 0.00 0.03 0.00 61 1013.8
20260902190023 95 101 0.0 0.0 0.00 0.03 0.00 58 1013.9
20260902184536 94 201 0.0 0.0 0.00 0.03 0.00 61 1014.1
20260902183025 93 179 0.0 1.0 0.00 0.03 0.00 62 1014.3
20260902181525 92 231 0.0 5.0 0.00 0.03 0.00 63 1014.5
20260902180032 91 140 0.0 0.0 0.00 0.03 0.00 68 1014.9
20260902174527 90 277 0.0 0.0 0.00 0.03 0.00 69 1014.9
20260902173026 90 210 0.0 0.0 0.00 0.03 0.00 71 1015.2
20260902171526 90 199 0.0 0.0 0.00 0.03 0.00 71 1015.3
20260902170026 90 160 0.0 0.0 0.00 0.03 0.00 72 1015.6
20260902164525 89 104 0.0 0.0 0.00 0.03 0.00 74 1015.8
20260902163025 88 111 0.0 0.0 0.00 0.03 0.00 75 1015.9
20260902161528 88 221 0.0 0.0 0.00 0.03 0.00 77 1015.9